Location: Olsztyn
(53.7767°N, 20.4765°E)
Time: 08:54:33
(UTC+01:00)

A-11 Canister half - Visible Passes

Search period start: 28 January 2022 00:00
Search period end: 07 February 2022 00:00
Orbit: 1524 x 1684 km, 47.3° (Epoch: 27 January)

Date Brightness Start Highest point End Pass type
(mag) Time Alt. Az. Time Alt. Az. Time Alt. Az.
30 Jan 11.9 17:46:34 10° WSW 17:47:55 10° WSW 17:49:16 10° SW visible
31 Jan 12.0 17:23:55 10° WSW 17:26:22 11° SW 17:28:51 10° SW visible
01 Feb 12.0 17:01:39 10° WSW 17:04:49 12° SW 17:08:02 10° SW visible
